Terminal Aerodrome Forecast
Issued by NWS Blacksburg, VA

Current Version | Previous Version | Graphics & Text | Print | Product List | Glossary On
Versions: 1 2 3 4 5 6 7 8 9 10 11 12 13 14 15 16 17 18 19 20 21 22 23 24 25 26 27 28 29 30
000
FTUS41 KRNK 040749 AAA
TAFBLF
TAF AMD
KBLF 040749Z 0408/0506 00000KT P6SM SCT120
     FM041300 32004KT P6SM SCT025 BKN050
     FM041700 02003KT P6SM VCTS BKN050CB
     FM042300 12003KT P6SM VCSH SCT040 BKN080=

USA.gov is the U.S. government's official web portal to all federal, state and local government web resources and services.